UAL1220 KEWR-KFLL

Flight info

Callsign UAL1220
Flight time N/A
Altitude 36000
Route ELVAE NECCK WHITE Q409 CRPLR PAACK/N0454F380 Q97 PRMUS CUUDA3
Aircraft B38M/M-SDE1FGHILORVWXY/HB1

Departure

Time 2026-04-26 01:02
Airport Newark Liberty International Airport (KEWR)

Arrival

Time N/A
Airport Fort Lauderdale Hollywood International Airport (KFLL)
Time Latitude Longitude Altitude Speed Heading
2026-04-26 00:43 40.68760 -74.17779 12 ft 0 kts 86°
2026-04-26 00:53 40.68760 -74.17785 12 ft 1 kts 87°
2026-04-26 00:53 40.68760 -74.17799 12 ft 1 kts 88°
2026-04-26 00:53 40.68759 -74.17815 12 ft 1 kts 87°
2026-04-26 00:54 40.68759 -74.17829 12 ft 1 kts 88°
2026-04-26 00:54 40.68758 -74.17841 12 ft 0 kts 102°
2026-04-26 00:54 40.68760 -74.17849 12 ft 0 kts 142°
2026-04-26 00:54 40.68765 -74.17852 12 ft 0 kts 188°
2026-04-26 00:55 40.68773 -74.17847 12 ft 1 kts 214°
2026-04-26 00:55 40.68779 -74.17843 12 ft 1 kts 184°
2026-04-26 00:57 40.68777 -74.17844 12 ft 1 kts 184°
2026-04-26 00:58 40.68749 -74.17847 12 ft 6 kts 185°
2026-04-26 00:58 40.68701 -74.17825 12 ft 11 kts 144°
2026-04-26 00:58 40.68659 -74.17735 12 ft 14 kts 112°
2026-04-26 00:58 40.68618 -74.17610 12 ft 17 kts 116°
2026-04-26 00:59 40.68552 -74.17474 12 ft 12 kts 167°
2026-04-26 00:59 40.68510 -74.17502 12 ft 5 kts 201°
2026-04-26 00:59 40.68441 -74.17539 12 ft 16 kts 204°
2026-04-26 00:59 40.68317 -74.17614 12 ft 20 kts 206°
2026-04-26 01:00 40.68193 -74.17692 12 ft 20 kts 205°
2026-04-26 01:00 40.68084 -74.17762 12 ft 20 kts 206°
2026-04-26 01:00 40.67967 -74.17834 12 ft 20 kts 206°
2026-04-26 01:00 40.67867 -74.17900 12 ft 20 kts 205°
2026-04-26 01:01 40.67735 -74.17973 12 ft 19 kts 184°
2026-04-26 01:01 40.67685 -74.17866 12 ft 15 kts 56°
2026-04-26 01:01 40.67789 -74.17794 12 ft 43 kts 26°
2026-04-26 01:01 40.68364 -74.17418 13 ft 144 kts 26°
2026-04-26 01:02 40.69508 -74.16699 343 ft 197 kts 28°
2026-04-26 01:02 40.70543 -74.16066 1332 ft 178 kts 23°
2026-04-26 01:02 40.72681 -74.16838 1635 ft 216 kts 320°
2026-04-26 01:03 40.73476 -74.18220 1710 ft 234 kts 297°